Estación de Mayorquina

Ultimos registro cada 15 minutos 20
Estación Fecha / Hora Temperatura Humedad Lluvia Velocidad Dirección Radiación Presion
20 Mayorquina 06-09-2026 04:45 14,6 87 0 0 310 0 1010,8
19 Mayorquina 06-09-2026 04:30 14,6 87 0 0 49 0 1010,6
18 Mayorquina 06-09-2026 04:15 14,6 87 0 0 66 0 1010,6
17 Mayorquina 06-09-2026 04:00 14,6 87 0 1,3 54 0 1010,6
16 Mayorquina 06-09-2026 03:45 14,7 87 0 2,2 45 0 1010,5
15 Mayorquina 06-09-2026 03:30 14,7 87 0 3,1 72 0 1010,5
14 Mayorquina 06-09-2026 03:15 14,8 87 0 1,3 81 0 1010,5
13 Mayorquina 06-09-2026 03:00 14,8 87 0 1,3 70 0 1010,8
12 Mayorquina 06-09-2026 02:45 14,8 87 0 0,9 64 0 1011,2
11 Mayorquina 06-09-2026 02:30 14,8 87 0 2,2 68 0 1011,5
10 Mayorquina 06-09-2026 02:15 14,8 87 0 0,9 95 0 1011,6
9 Mayorquina 06-09-2026 02:00 14,8 87 0 1,3 86 0 1011,6
8 Mayorquina 06-09-2026 01:45 14,9 87 0 0,4 114 0 1011,9
7 Mayorquina 06-09-2026 01:30 14,9 86 0 0 152 0 1012,3
6 Mayorquina 06-09-2026 01:15 15 86 0 0 253 0 1012,5
5 Mayorquina 06-09-2026 01:00 15,1 86 0 0 241 0 1012,6
4 Mayorquina 06-09-2026 00:45 15,1 86 0 0 237 0 1012,8
3 Mayorquina 06-09-2026 00:30 15,1 86 0 0,4 249 0 1012,6
2 Mayorquina 06-09-2026 00:15 15,2 85 0 0 253 0 1012,5
1 Mayorquina 06-09-2026 00:00 15,3 85 0 0 101 0 1012,3